Flag for Germany Weather past 2 weeks in Emmendingen, Baden-Württemberg, Germany

Now
55 °F

Clear.


Feels Like: 55 °F
Forecast: 57 / 80 °F
Wind: 1 mph from Northwest

Location: Lahr

Current Time: Sep 17, 2014 at 4:26:12 AM

Latest Report: Sep 17, 2014 at 4:00 AM


Visibility: 3 mi

Pressure: 29.92 "Hg

Humidity: 98%

Dew point: 55 °F

Location of EmmendingenLocation

Historic Weather in Emmendingen — Graph

°F

Emmendingen temperature yesterday

Maximum temperature yesterday: 74 °F (at 4:00 PM)
Minimum temperature yesterday: 53 °F (at 6:00 AM)
Average temperature yesterday: 62 °F

Past Weeks' High & Low Weather Summary

 TemperatureHumidityPressure
High78 °F (Sep 8, 5:00 PM)100% (Sep 3, 5:00 AM)30.16 "Hg (Sep 3, 5:00 AM)
Low48 °F (Sep 11, 7:00 AM)54% (Sep 7, 4:00 PM)29.86 "Hg (Sep 6, 5:00 PM)
Average62 °F86%30.02 "Hg
* Reported Sep 2 3:00 AM — Sep 17 3:00 AM, Emmendingen, Weather by CustomWeather, © 2014

Note: Actual official high and low records may vary slightly from our data, if they occured in-between our weather recording intervals... More about our weather records

Advertising

Emmendingen weather history for previous 24 hours

 ConditionsComfort  
Time TempWeatherWind HumidityBarometerVisibility
3:00 AM
Sep 17
56 °FClear.1 mph95%29.92 "Hg6 mi
2:00 AM58 °FFog.1 mph98%29.92 "Hg3 mi
1:00 AM58 °FFog.1 mph96%29.91 "Hg2 mi
12:00 AM59 °FClear.1 mph95%29.93 "Hg6 mi
11:00 PM
Sep 16
60 °FClear.1 mph97%29.92 "Hg5 mi
10:00 PM61 °FClear.1 mph94%29.93 "Hg9 mi
9:00 PM64 °FPassing clouds.1 mph90%29.92 "Hg16 mi
8:00 PM67 °FPassing clouds.1 mph82%29.91 "Hg22 mi
7:00 PM71 °FPassing clouds.3 mph72%29.91 "Hg22 mi
6:00 PM74 °FPassing clouds.3 mph60%29.91 "Hg19 mi
5:00 PM74 °FPassing clouds.3 mph62%29.91 "Hg19 mi
4:00 PM74 °FPassing clouds.3 mph64%29.92 "Hg19 mi
3:00 PM73 °FPassing clouds.2 mph68%29.94 "Hg16 mi
2:00 PM71 °FPassing clouds.2 mph71%29.95 "Hg12 mi
1:00 PM69 °FPassing clouds.2 mph76%29.97 "Hg8 mi
12:00 PM65 °FFog.1 mph80%29.99 "Hg4 mi
11:00 AM62 °FFog.1 mph87%30.00 "Hg2 mi
10:00 AM58 °FFog.1 mph95%30.01 "Hg1 mi
9:00 AM56 °FFog.2 mph98%30.00 "Hg1 mi
8:00 AM54 °FFog.No wind99%29.99 "Hg0 mi
7:00 AM53 °FFog.1 mph99%29.99 "Hg0 mi
6:00 AM53 °FFog.1 mph97%29.98 "Hg4 mi
5:00 AM53 °FFog.1 mph97%29.98 "Hg3 mi
4:00 AM55 °FClear.1 mph97%29.98 "Hg7 mi
Weather by CustomWeather, © 2014

See weather overviewHow to use our weather pages